星链-36610(STARLINK-36610)

导读

STARLINK-36610是美国太空探索技术公司星链星座的一员,于2026年1月30日发射升空,星链项目旨在构建覆盖全球的卫星互联网星座,为全球各地用户提供高速低延迟的宽带网络服务。该卫星入轨后将参与星座组网,进一步完善星链系统的全球覆盖能力,提升服务性能。

Basic Information
目录编号:
67637
目录名称:
STARLINK-36610
国际标识:
2026-020W
轨道中心:
EARTH
卫星名称:
星链-36610
卫星全名:
星链-36610(STARLINK-36610)
卫星状态:
在轨 (已飞行217 天)
发射日期:
2026-01-30 UTC
国别 :
美国 (US)
星等 :
--
Orbit Information
数据来源 国际轨道数据 AOE轨道数据
星历时间 2026-09-04T14:06:57+0800
7小时前
查看轨道信息
2026-09-03T23:00:00+0800
22小时前
查看轨道信息
半长轴 6861.172km 6861.195km
偏心率 0.0001379 0.0001375
轨道倾角 43.000° 42.999°
近地点辐角 267.749° 276.409°
升交点赤经 211.262° 214.822°
平近点角 92.320° 215.980°
近地点 482.088km 482.114km
远地点 483.982km 484.002km
周期 94.266分钟 94.267分钟
每日圈数 15.275849 15.275771
Detailed Information
固有亮度:
5
最大亮度:
2.5
卫星平台:
Starlink V1.0
覆盖范围:
全球
运营商:
太空探索技术公司
运营商所在国:
美国
制造商(研发单位):
太空探索技术公司
制造商所在国:
美国
使用方式:
暂无
Satellite Introduction
Starlink 计划是 SpaceX 推出的全球卫星互联网项目,通过发射低轨道卫星,为全球尤其是偏远地区提供高速、低延迟的互联网服务。自 2019 年起,Starlink 已部署数千颗卫星,旨在缩小全球数字鸿沟,推动互联网普及。该项目还为军事、航空等行业提供通信支持,带来广泛经济效益。
2D Orbit Map
3D Orbit Map
Orbit Altitude Analysis Chart
Orbit Inclination Analysis Chart
Orbit Comprehensive Analysis Chart
View Comprehensive Chart
Conjunction Data List
Event ID Objects TCA Miss Dist (km) Collision Risk Probability Collision Risk Index (CRI) Action
CDM_260905-044704-639606-763721
2026-09-05T
04:47:31+0000
1.187 km
极远距离
1.460059E-5 中风险 0.58
CDM_260829-071504-282706-763721
OBJECT C (42827)
2026-08-29T
07:15:13+0000
2.057 km
极远距离
2.609363E-6 低风险 0.43